Regional Weather Roundup
Issued by NWS

Home | Current Version | Previous Version | Graphics & Text | Print | Product List | Glossary On
Versions: 1 2 3 4 5 6 7 8 9 10 11 12 13 14 15 16 17 18 19 20 21 22 23 24 25 26 27
000
ASUS45 KBOU 290907
RWRCO

WEATHER ROUNDUP FOR COLORADO
NATIONAL WEATHER SERVICE DENVER/BOULDER CO
300 AM MDT FRI APR 29 2016

NOTE: "FAIR" INDICATES FEW OR NO CLOUDS BELOW 12000 FEET WITH NO
SIGNIFICANT WEATHER AND/OR OBSTRUCTIONS TO VISIBILITY.

COZ001>005-013-030-031-291000-
...NORTHWEST COLORADO...

CITY           SKY/WX    TMP DP  RH WIND       PRES   REMARKS
CRAIG          CLOUDY    38  34  85 NE3       29.88F
HAYDEN         MOCLDY    34  30  86 S6        29.89S WCI  29
MEEKER         CLOUDY    39  34  82 SE7       29.84F
MOUNT WERNER   NOT AVBL
STEAMBOAT SPGS MOCLDY    32  31  96 SE5       29.89S WCI  27
WALDEN         FAIR      27  23  86 N5        29.92F WCI  21
$$

COZ006>008-011-291000-
...WEST CENTRAL VALLEYS...

CITY           SKY/WX    TMP DP  RH WIND       PRES   REMARKS
GRAND JUNCTION FAIR      41  38  89 N7        29.81S
MONTROSE       FAIR      44  31  60 SE10      29.84S
EAGLE          MOCLDY    36  36 100 E6        29.90S
RIFLE          FAIR      41  36  82 CALM      29.83S
DELTA          NOT AVBL
NUCLA          NOT AVBL
$$

COZ017>023-064>068-291000-
...SOUTHWEST COLORADO...

CITY           SKY/WX    TMP DP  RH WIND       PRES   REMARKS
DURANGO        MOCLDY    35  32  88 NE6       29.87F WCI  30
CORTEZ         FAIR      33  30  88 E3        29.83F
PAGOSA SPRINGS TSTM      36  33  91 SW6       29.90F
TELLURIDE      LGT SNOW  31  26  82 CALM      29.91F
WOLF CREEK PAS NOT AVBL
$$

COZ009-010-012-014-032>034-037-058>063-291000-
...CENTRAL COLORADO...

CITY           SKY/WX    TMP DP  RH WIND       PRES   REMARKS
ASPEN          CLOUDY    35  31  85 CALM      29.87F
BUENA VISTA    FLURRIES  29  28  96 CALM      29.96F
COPPER MTN     NOT AVBL
BERTHOUD PASS  HAZE      14   5  67 E29G37    29.99R VSB<1/4 WCI  -7
COTTONWOOD PAS LGT SNOW  30  28  93 CALM      29.96F
GUNNISON       CLOUDY    37  30  75 N5        29.90F
KREMMLING      CLOUDY    34  32  93 CALM      29.92S
LEADVILLE      LGT SNOW  24  24 100 S13       29.94F FOG     WCI  12
MONARCH PASS   CLOUDY    19  18  93 NE25      30.03F WCI   2
SALIDA         CLOUDY    33  32  96 E6        30.04F WCI  27
SUNLIGHT       CLOUDY    30  30 100 E5        29.95F FOG     WCI  25
WILKERSON PASS LGT SNOW  21  19  93 E5        30.01F VSB 1   WCI  15
$$

COZ069>075-291000-
...SAN LUIS VALLEY/SANGRE DE CRISTO MOUNTAINS...

CITY           SKY/WX    TMP DP  RH WIND       PRES   REMARKS
ALAMOSA        MIX PCPN  36  32  85 E9        29.86F
LA VETA PASS   LGT SNOW  23  23 100 MISG      29.92F VSB 3/4
SAGUACHE       CLOUDY    36  34  93 CALM      29.90F
$$

COZ035-036-038>040-291000-
...NORTHERN COLORADO FRONT RANGE...

CITY           SKY/WX    TMP DP  RH WIND       PRES   REMARKS
DENVER INTL AP LGT SNOW  33  30  88 SE6       30.03R FOG     WCI  28
DMNS CITY PARK   N/A     33  33  98 E10       30.03S WCI  25
AURORA         FLURRIES  33  33  99 S6        30.03S WCI  28
FRONT RANGE AP NOT AVBL
ERIE MUNI ARPT RAIN      37  37  97 SE9       30.03R
BOULDER MUN AP LGT RAIN  36  36 100 SE3       30.03R
CENTENNIAL     LGT SNOW  33  32  96 S7        30.02S FOG     WCI  27
BROOMFIELD     LGT SNOW  34  34 100 SE5       30.03S WCI  30
FORT COLLINS   CLOUDY    37  34  87 SE10      30.03F
LONGMONT       MIX PCPN  39  37  93 SE7       30.05S
$$

COZ041-046-047-076>085-087-088-291000-
...PIKES PEAK/PALMER DIVIDE AND SOUTHERN FOOTHILLS...

CITY           SKY/WX    TMP DP  RH WIND       PRES   REMARKS
COLO. SPRINGS  LGT SNOW  33  31  92 CALM      30.02F FOG
A. F. ACADEMY  LGT SNOW  32  32 100 CALM      29.99F FOG
SCHRIEVER AFB  NOT AVBL
ELLICOTT       NOT AVBL
FALCON         LGT SNOW  32  32 100 NE3       30.02F
FORT CARSON    FLURRIES  32  32 100 NW7       30.00F WCI  26
LIMON          LGT SNOW  32  32 100 CALM      30.04S VSB 1
MONUMENT HILL  LGT SNOW  30  30 100 CALM      30.02F
TRINIDAD       LGT SNOW  33  31  92 NW6       29.97F VSB 1   WCI  28
$$

COZ042>045-048>051-090-091-291000-
...NORTHEAST COLORADO...

CITY           SKY/WX    TMP DP  RH WIND       PRES   REMARKS
GREELEY ARPT   CLOUDY    37  34  87 SE9       30.05F
AKRON          CLOUDY    37  34  89 E10       30.04F
BURLINGTON     RAIN      39  36  89 E13       30.05S
WRAY           NOT AVBL
STERLING       CLOUDY    37  36  93 NE7       30.06S
HOLYOKE        NOT AVBL
FORT MORGAN    CLOUDY    37  35  91 E8        30.06R
$$

COZ086-089-092>099-291000-
...SOUTHEAST COLORADO...

CITY           SKY/WX    TMP DP  RH WIND       PRES   REMARKS
PUEBLO         LGT RAIN  39  35  86 E8        30.01F
LA JUNTA       LGT RAIN  43  41  93 E3        30.00F FOG
LAMAR          CLOUDY    44  42  93 E14       29.94F
SPRINGFIELD      N/A     41  41 100 NE26G35   29.89F
$$




USA.gov is the U.S. government's official web portal to all federal, state and local government web resources and services.